Regional Weather Roundup
Issued by NWS

Home | Current Version | Previous Version | Graphics & Text | Print | Product List | Glossary On
Versions: 1 2 3 4 5 6 7 8 9 10 11 12 13 14 15 16 17 18 19 20 21 22 23 24 25
000
ASUS45 KTFX 200410
RWRMT
MONTANA REGIONAL WEATHER ROUNDUP
NATIONAL WEATHER SERVICE GREAT FALLS MT
1000 PM MDT TUE SEP 19 2017

NOTE: "FAIR" INDICATES FEW OR NO CLOUDS BELOW 12000 FEET WITH NO
SIGNIFICANT WEATHER AND/OR OBSTRUCTIONS TO VISIBILITY.

MTZ001>007-043-200500-
WEST OF THE DIVIDE

CITY           SKY/WX    TMP DP  RH WIND       PRES   REMARKS
KALISPELL      CLOUDY    46  38  73 S9        29.68F
MISSOULA       CLOUDY    43  38  82 SE6       29.78F
BUTTE          CLOUDY    35  34  96 NE6       29.80F WCI  30
MULLAN PASS    SNOW      30  29  96 SW7       29.71S VSB 1/2 WCI  23
ANACONDA         N/A     37  32  81 S7        29.79F
DEER LODGE       N/A     39  32  75 S9        29.78F
EUREKA           N/A     46  36  66 CALM      29.66S
HAMILTON         N/A     41  36  81 S9        29.79S
LIBBY            N/A     45  39  81 E6        29.68S
PLAINS           N/A     45  36  70 CALM      29.77S
$$

MTZ008-052>055-200500-
SOUTHWEST MONTANA

CITY           SKY/WX    TMP DP  RH WIND       PRES   REMARKS
BOZEMAN        CLOUDY    40  37  89 E8        29.79F
DILLON         CLOUDY    36  31  82 S6        29.81F WCI  31
W YELLOWSTONE  CLOUDY    34  32  93 CALM      29.85R
ENNIS          CLOUDY    36  34  93 SE5       29.87R
THREE FORKS      N/A     41  34  76 NE2       29.81R
TWIN BRIDGES     N/A     38  32  79 CALM      29.83R
$$

MTZ009-010-012-014-046-048-049-054-200500-
EAST SLOPES AND CENTRAL MONTANA

CITY           SKY/WX    TMP DP  RH WIND       PRES   REMARKS
CUT BANK       CLOUDY    42  32  67 SW16G24   29.60F
GREAT FALLS    CLOUDY    44  30  57 SW20G30   29.65F
MALMSTROM AFB  CLOUDY    45  31  57 SW24G31   29.65F
HELENA         PTCLDY    46  33  60 CALM      29.73S
BOWMANS CRNR     N/A     38  31  74 S15       29.66F WCI  30
CHOTEAU          N/A     45  27  49 SW13      29.64S
FAIRFIELD        N/A     42  28  57 S15       29.63S
POWER            N/A     40  31  69 SW13      29.62F
RAYNESFORD     MOCLDY    46  29  51 W14G23    29.67S
ULM              N/A     44  31  59 SW17      29.68F
$$

MTZ011-013-016-021-045-047-050-051-200500-
NORTH CENTRAL MONTANA

CITY           SKY/WX    TMP DP  RH WIND       PRES   REMARKS
HAVRE          CLOUDY    49  36  61 SW15      29.59R
LEWISTOWN      CLOUDY    42  31  64 SW15      29.67F
N BAR RANCH      N/A     45  28  53 W12       29.69F
CHINOOK          N/A     46  32  57 SW6       29.58S
DENTON           N/A     44  32  63 W10       29.62F
GEYSER           N/A     44  30  56 W16       29.65F
GRASS RANGE    MOCLDY    45  34  65 W10       29.63F
JUDITH GAP     MOCLDY    39  30  69 SW12      29.71R
WINIFRED         N/A     45  34  65 SW13      29.64F
$$

MTZ017>020-022>027-061-062-200500-
NORTHEAST MONTANA

CITY           SKY/WX    TMP DP  RH WIND       PRES   REMARKS
GLASGOW        CLEAR     47  34  60 SW8       29.58S
JORDAN           N/A     45  37  73 SW8       29.62F
SIDNEY         MOCLDY    50  38  63 SW12      29.59F
WOLF POINT     PTCLDY    47  40  76 CALM      29.59S
MALTA          CLEAR     39  36  87 CALM      29.58S
PLENTYWOOD       N/A     52  43  71 CALM      29.56S
POPLAR           N/A     50  39  66 SW6       29.59S
SCOBEY           N/A     45  35  67 CALM      29.59S
$$

MTZ028>42-056>058-200500-
SOUTHCENTRAL AND SOUTHEAST MONTANA

CITY           SKY/WX    TMP DP  RH WIND       PRES   REMARKS
BAKER          CLEAR     45  38  76 SW13      29.67F
BILLINGS       CLOUDY    47  36  65 SW8       29.71F
LIVINGSTON     CLOUDY    40  37  89 W13       29.78S
MILES CITY     CLEAR     45  37  73 S8        29.67S
BIG TIMBER     MOCLDY    39  36  87 SW15      29.78  WCI  31
EKALAKA          N/A     44  37  76 SW2       29.71S
HARLOWTON      MOCLDY    38  33  80 MISG      29.72R
LAUREL           N/A     43  39  87 W9        29.74R
$$

REGIONAL REPORTS...DAKOTAS

CITY           SKY/WX    TMP DP  RH WIND       PRES   REMARKS
WILLISTON      CLOUDY    54  42  64 W12       29.57R
MINOT          CLOUDY    56  46  69 W18       29.51R
DICKINSON      PTCLDY    46  43  89 W12       29.61R
BEACH            N/A     45  41  87 SW13G18   29.67S
CROSBY         CLOUDY    50  50 100 W8        29.54S
TIOGA            N/A     50  50 100 W8G15     29.56S
WATFORD CITY   CLOUDY    52  39  62 W10       29.57S
BISMARCK       CLOUDY    56  32  40 NW15G24   29.56S
GRAND FORKS    LGT RAIN  66  65  96 E20G28    29.36F
FARGO          TSTM      63  62  97 N13       29.46S
BUFFALO SD       N/A     43  42  97 W8        29.64F
RAPID CITY     CLEAR     45  41  87 NW8       29.73S
$$

REGIONAL REPORTS...WYOMING/IDAHO/WASHINGTON

CITY           SKY/WX    TMP DP  RH WIND       PRES   REMARKS
GILLETTE       CLEAR     42  38  85 SW8       29.76F
SHERIDAN       CLOUDY    43  38  82 NE8       29.73S
BUFFALO WY     CLOUDY    42  36  79 CALM      29.78R
CODY           CLOUDY    42  32  67 W9G17     29.82R
YELLOWSTONE LA   N/A     30  28  92 W8        29.88R WCI  22
IDAHO FALLS    CLEAR     44  35  70 S14       29.91R
SALMON         PTCLDY    43  35  73 NW5       29.83F
BOISE          MOCLDY    51  40  65 SE8       29.88S
SPOKANE        CLOUDY    44  43  96 S9        29.70F
$$

REGIONAL REPORTS...ALBERTA

CITY           SKY/WX    TMP DP  RH WIND       PRES   REMARKS
EDMONTON       CLOUDY    41  36  81 W12       29.39F
CALGARY        PTCLDY    43  21  42 NW6       29.48F
LETHBRIDGE     PTCLDY    45  28  53 SW16G23   29.51F
MEDICINE HAT   PTCLDY    43  32  65 S9        29.51S
$$

REGIONAL REPORTS...SASKATCHEWAN

CITY           SKY/WX    TMP DP  RH WIND       PRES   REMARKS
SWIFT CURRENT  CLEAR     43  30  61 CALM      29.51F
REGINA         CLOUDY    48  43  81 W8        29.49S
SASKATOON      MOCLDY    45  39  81 W12       29.44F
$$




USA.gov is the U.S. government's official web portal to all federal, state and local government web resources and services.